Wind_Speed
24 24 24 23 23 23 23 22 22 21 21 21 21 20 20 20 20 20 20 20 20 20 20 20 20 20 20 19 19 19 18 18 17 17 17 16 17 17 17 17 17 17 17 17 17 17 18 18 19 19 20 20 21 21 22 22 22 22 23 24 25 26 26 27 27 27 26 25 24 23 21 21 22 23 22 20 18 20 23 23 23 24 23 22 21 19 18 19
26 26 26 25 25 25 24 24 24 23 23 23 23 22 22 22 22 23 23 23 23 22 22 22 22 22 21 21 20 20 20 19 19 18 18 18 19 19 19 19 19 19 19 20 19 20 20 21 21 22 22 23 23 24 24 24 24 25 25 26 27 27 27 27 27 26 24 23 24 24 24 23 24 24 24 21 20 23 24 23 24 25 26 24 22 22 21 21
28 28 28 27 27 27 27 26 26 26 25 25 25 25 25 25 25 25 25 25 25 25 24 24 24 23 23 22 21 21 21 21 21 20 20 20 21 21 21 21 21 22 22 22 22 22 22 23 24 24 24 25 25 26 26 26 26 27 27 26 26 26 26 26 25 26 24 24 25 26 26 26 27 26 24 22 20 24 26 23 24 27 28 27 25 24 22 22
31 30 30 30 29 29 29 29 28 28 28 28 27 27 27 27 27 27 27 27 27 26 26 25 25 24 24 23 23 22 23 23 22 22 22 22 23 23 23 23 23 24 24 24 24 24 25 25 26 26 27 27 28 28 28 27 26 26 26 25 25 24 25 26 26 27 27 27 28 29 28 28 28 27 26 23 20 24 27 25 26 28 30 30 29 27 24 24
33 33 32 32 32 31 31 31 31 30 30 30 30 30 30 30 30 30 30 29 29 28 27 26 26 25 25 24 24 24 24 24 24 24 24 24 24 25 25 25 25 26 26 26 27 27 27 28 29 29 29 29 28 29 28 27 25 25 25 25 25 25 26 29 29 29 30 30 30 30 29 28 29 29 28 26 24 25 27 27 27 29 31 32 32 31 28 26
35 35 35 34 34 34 34 33 33 33 33 33 33 33 33 33 33 32 31 31 30 29 28 27 27 26 26 25 25 25 26 26 25 26 26 26 26 26 27 27 28 29 29 29 30 30 30 30 30 30 29 29 28 28 28 26 26 25 25 27 27 27 27 30 31 32 33 33 32 31 29 29 30 30 29 28 28 27 27 27 28 29 31 32 33 33 31 29
38 38 37 37 37 36 36 36 36 36 36 35 35 34 34 33 32 32 31 30 30 29 28 28 27 27 27 27 27 27 28 28 27 27 28 28 29 29 30 30 31 32 32 32 33 32 32 32 31 30 29 28 28 28 28 27 27 26 27 29 30 30 30 31 31 32 34 34 33 31 29 30 32 30 29 30 29 28 29 28 28 29 31 32 33 33 33 31
40 40 40 39 39 39 38 38 37 37 36 35 34 33 32 31 31 30 30 29 29 29 29 28 28 28 28 28 28 28 30 31 29 30 31 31 32 32 33 33 34 34 34 34 34 33 32 31 30 29 28 28 27 28 28 28 29 29 29 30 30 31 30 30 31 32 34 34 33 33 31 32 34 31 30 32 30 29 30 30 29 30 31 32 33 33 33 32
42 41 41 40 40 39 39 38 37 36 35 34 33 33 32 32 31 31 30 30 30 30 30 30 30 30 30 30 30 31 33 33 33 33 34 35 35 35 35 35 34 34 33 33 32 31 30 30 29 29 29 28 28 29 30 31 32 31 31 30 29 30 30 30 31 32 34 33 33 34 31 32 34 31 31 33 31 29 31 32 32 32 32 32 33 33 33 33
42 41 41 40 40 39 38 38 37 36 36 36 35 35 34 34 34 33 33 33 33 33 33 33 33 33 33 34 33 33 36 36 36 36 36 36 35 34 33 32 32 31 31 30 30 30 30 30 30 30 31 31 31 32 33 33 33 32 31 30 29 30 30 31 32 34 35 33 33 34 31 31 32 30 31 34 31 29 31 32 33 32 32 32 32 32 33 33
43 42 42 41 41 40 40 39 39 39 39 38 38 38 37 37 37 37 36 36 36 36 36 36 37 36 36 36 35 35 37 37 36 36 35 34 33 32 31 30 31 31 31 31 31 31 31 32 32 33 34 33 33 33 33 33 33 32 32 31 31 31 30 31 34 34 34 33 34 34 31 30 30 30 31 33 31 30 30 31 32 32 31 31 31 32 32 32
45 45 44 44 43 43 42 42 42 42 41 41 41 41 40 40 40 40 40 40 40 40 39 39 39 39 39 38 36 36 37 35 34 34 33 33 32 32 33 33 33 34 34 34 34 34 35 35 35 35 35 34 33 33 33 33 33 33 33 33 32 32 31 31 35 35 33 33 34 35 33 29 28 29 31 31 30 30 31 32 32 31 31 31 31 31 31 32
46 46 46 46 46 45 45 44 44 44 44 44 43 43 43 43 42 42 42 42 42 41 41 41 40 40 39 36 34 35 34 33 33 34 34 34 35 35 36 37 37 37 37 37 37 37 37 37 36 36 35 35 34 34 35 35 35 34 35 35 33 33 31 32 36 35 33 34 34 35 35 30 26 28 29 29 30 31 32 33 32 32 31 30 29 29 30 31
46 46 46 46 46 46 46 45 45 45 45 45 45 44 44 43 43 42 42 41 41 40 40 39 38 38 36 33 32 34 34 34 35 36 37 37 38 39 39 39 39 39 39 39 38 38 38 37 37 37 36 36 36 36 36 36 36 36 36 36 36 36 33 32 34 34 33 34 35 37 37 32 27 26 28 29 30 32 33 32 32 31 31 29 28 28 29 30
46 46 46 45 45 45 45 44 44 44 44 44 43 43 42 42 41 41 40 39 39 38 38 38 37 38 36 34 34 36 36 37 38 39 40 40 40 40 40 40 39 39 39 38 38 38 38 38 39 39 39 38 38 38 37 37 37 36 38 38 38 39 35 32 33 34 34 35 36 37 38 35 29 27 28 29 32 33 33 31 30 30 30 29 28 27 28 29
48 48 47 47 46 45 45 44 43 43 42 42 42 42 41 41 41 40 40 40 40 40 40 40 40 40 40 37 37 38 39 40 40 40 40 40 40 40 39 39 39 39 39 39 39 39 40 41 41 41 41 40 39 38 38 39 37 36 39 41 40 40 38 35 33 33 35 36 37 37 37 36 32 30 29 31 33 33 31 30 29 29 30 30 29 29 28 29
48 48 48 48 48 48 47 46 45 44 44 43 43 43 43 43 43 43 43 43 43 43 43 43 42 43 42 39 38 39 39 39 39 39 39 39 39 39 39 40 40 40 41 41 41 41 42 42 43 42 42 40 39 38 40 40 38 38 40 41 41 40 40 38 35 34 36 37 38 38 37 36 35 34 33 35 36 34 32 31 30 30 31 31 31 31 31 31
48 48 48 48 49 49 48 48 47 47 46 46 46 46 46 46 46 45 45 44 44 43 43 43 42 42 41 39 39 38 39 39 39 39 39 39 39 40 40 41 41 42 42 42 42 42 43 44 44 43 41 39 38 39 41 41 40 40 41 41 41 41 41 40 37 36 38 39 40 39 39 38 37 36 36 37 38 37 36 36 34 34 34 34 34 34 34 33
49 49 49 49 49 49 48 48 48 47 47 47 47 47 47 46 46 46 45 44 43 43 42 42 41 42 41 40 40 40 40 40 40 39 39 39 39 40 41 41 42 42 42 42 42 43 44 45 45 43 40 38 39 41 42 42 41 42 43 43 43 43 42 41 39 40 41 41 41 41 40 40 39 38 38 38 38 39 39 39 38 37 37 36 35 36 36 36
50 50 50 50 50 49 49 48 48 47 47 46 46 46 46 46 46 45 44 44 43 43 43 42 42 42 42 41 41 41 41 41 40 40 39 40 41 42 43 43 44 44 44 43 44 45 45 45 45 42 39 40 42 43 43 43 44 44 45 46 45 45 44 41 41 42 43 44 43 42 41 40 39 39 38 38 38 39 40 39 39 39 38 36 35 35 35 36
52 52 52 52 51 51 50 49 48 48 47 47 47 46 46 47 47 46 46 45 44 44 43 43 43 42 41 42 42 43 43 43 42 42 42 43 44 45 45 45 46 46 46 46 48 47 46 47 45 41 41 44 45 45 45 46 46 47 47 47 46 45 43 41 41 42 44 45 44 42 42 40 39 39 38 37 37 38 39 39 39 39 38 37 35 34 35 35
55 55 54 54 54 53 52 51 50 49 49 48 48 48 48 48 48 48 48 47 45 45 45 44 44 43 42 43 45 45 47 46 44 45 46 47 47 48 48 49 48 47 47 48 48 48 48 48 44 43 45 47 47 47 48 48 49 48 48 47 46 44 43 42 41 42 43 44 43 42 42 40 40 39 38 37 37 37 38 38 38 38 38 38 37 36 36 36
57 57 57 57 56 55 53 52 52 51 51 50 50 50 50 49 49 49 49 49 46 45 46 46 46 46 45 46 47 48 49 48 47 47 48 50 50 50 51 50 48 47 48 47 47 48 50 48 45 46 48 48 48 48 49 49 48 47 47 47 46 43 43 43 42 42 43 43 43 43 43 42 42 41 40 38 37 36 37 38 39 39 39 39 38 38 38 38
59 59 59 59 58 57 55 54 53 52 52 51 51 51 51 51 51 51 51 52 50 47 46 48 49 49 48 49 49 49 50 50 50 50 50 51 51 50 50 48 48 47 46 45 46 49 49 47 45 47 48 48 48 48 48 47 46 46 46 45 44 42 43 44 43 43 43 44 44 44 45 44 43 43 42 40 39 38 38 39 40 40 40 40 40 39 39 39
61 61 60 60 59 58 56 55 54 53 52 52 52 52 52 52 52 53 53 54 55 51 48 49 51 52 52 51 51 51 52 52 52 51 50 49 49 48 47 46 47 46 45 45 47 49 47 44 45 46 46 46 47 46 45 44 45 45 43 42 42 42 43 43 43 44 44 45 44 45 47 46 44 44 44 42 42 42 42 42 41 40 41 41 42 41 41 40
61 62 62 61 60 59 57 56 55 54 53 53 53 54 54 54 54 55 55 57 59 55 52 52 52 54 54 53 52 53 54 54 53 51 49 48 47 47 47 46 45 45 45 45 47 46 44 42 44 46 45 45 45 43 41 42 45 44 41 40 42 43 43 43 44 44 45 45 45 46 48 48 47 47 46 44 44 46 46 45 44 43 43 43 43 43 42 42
52 58 61 62 61 59 58 57 56 55 55 55 56 56 56 56 56 56 56 59 62 59 56 56 54 55 55 54 55 55 56 55 53 51 49 47 46 46 46 45 43 43 43 43 43 42 40 41 42 43 42 43 42 41 41 44 45 42 41 41 43 43 43 44 44 45 46 46 47 49 50 50 49 47 47 47 47 48 48 47 47 46 44 43 43 43 43 44
44 48 52 56 59 61 61 59 58 57 57 58 58 58 58 57 58 58 58 61 64 63 61 59 58 57 56 56 56 55 55 53 50 48 46 45 44 43 43 42 41 41 40 39 39 37 38 39 39 40 41 41 40 41 43 44 43 42 42 43 43 44 45 45 46 47 48 48 50 51 49 49 49 48 49 50 49 48 48 48 47 46 45 44 43 44 44 44
47 46 46 47 50 55 58 59 58 57 57 57 57 58 58 59 60 60 60 62 66 66 63 61 60 59 57 56 54 52 50 49 47 46 44 43 43 41 40 40 39 38 37 37 36 36 37 37 37 38 39 39 41 42 43 43 43 43 43 44 44 45 46 47 48 48 49 50 51 50 47 48 50 50 51 51 49 47 47 47 46 45 45 45 45 44 44 44
50 49 48 48 46 46 48 51 52 53 54 54 54 55 55 56 57 59 62 65 66 66 64 62 60 58 56 54 51 48 47 46 45 45 44 43 42 41 39 38 38 37 37 37 35 34 36 36 37 38 38 39 40 41 41 42 42 42 43 44 44 45 46 47 48 48 49 51 50 47 45 46 51 53 52 50 48 48 47 46 46 46 46 45 45 45 45 45
49 49 48 48 47 45 43 44 47 49 50 50 49 50 49 49 50 54 60 62 60 61 61 59 57 55 52 50 49 48 47 46 44 44 43 43 41 40 39 38 39 38 38 37 35 35 36 37 37 37 38 38 39 39 39 39 39 40 41 42 43 44 45 46 46 46 48 49 47 45 44 46 51 54 52 50 50 49 48 48 47 47 47 47 47 47 48 48
50 50 48 46 46 46 46 46 47 49 49 48 47 46 45 46 49 52 54 53 51 52 52 51 51 50 49 49 49 48 47 45 43 43 42 41 40 39 39 40 40 40 40 39 38 38 39 40 39 39 38 39 39 39 39 38 38 39 40 41 42 44 45 46 46 46 47 47 46 45 46 49 52 52 50 49 50 49 50 50 50 50 50 51 51 52 52 51
52 51 50 48 47 48 49 50 51 52 51 50 49 48 47 48 52 54 53 49 46 47 47 48 49 49 50 50 49 47 46 44 44 43 43 42 40 40 40 41 41 41 43 43 43 43 43 43 42 41 40 39 40 39 38 38 39 41 42 42 43 44 46 47 47 47 48 47 48 48 50 53 54 52 50 50 50 51 52 52 53 53 54 54 55 55 55 55
49 50 51 51 50 50 52 53 53 53 52 52 51 50 51 53 55 55 52 47 45 46 47 49 51 51 51 50 48 47 45 45 44 44 44 43 42 42 41 42 43 44 45 46 46 47 47 46 44 44 43 42 42 42 41 42 43 44 44 45 46 46 47 48 49 50 51 51 52 53 54 56 55 53 53 52 53 54 54 55 55 56 56 57 58 58 58 59
45 47 49 51 50 49 50 51 49 48 49 51 51 53 55 56 56 55 51 46 45 48 50 52 53 53 52 51 49 47 46 45 45 44 44 45 44 44 44 44 44 45 46 47 47 49 49 49 47 44 43 44 44 44 45 45 46 47 47 48 49 47 46 49 52 53 54 54 55 56 57 57 54 53 53 54 55 55 55 56 57 58 59 59 60 61 61 61
45 47 49 50 48 46 46 46 45 45 47 49 52 54 55 54 53 53 51 47 46 48 51 52 53 53 53 52 50 48 46 45 44 45 46 46 46 46 46 45 45 46 47 47 47 49 51 51 49 45 43 43 44 45 45 45 46 47 48 49 48 46 48 51 54 54 54 56 57 56 57 57 55 55 55 55 56 56 57 59 59 60 61 61 62 62 62 61
46 46 47 47 45 44 43 43 44 45 46 49 52 53 53 52 51 51 50 48 46 47 50 51 51 51 50 50 48 46 44 44 45 46 47 47 48 49 47 46 46 47 48 48 49 51 53 54 52 49 46 45 45 45 46 46 48 48 48 48 48 49 51 52 55 56 56 59 59 58 58 58 58 59 58 57 57 58 60 61 61 62 62 62 62 61 61 60
44 43 43 42 41 42 41 41 43 44 46 49 50 50 50 50 49 49 49 48 47 48 49 50 50 50 50 49 49 48 48 48 49 49 49 49 51 52 50 49 50 50 50 51 52 53 54 56 55 53 51 49 47 48 48 49 48 48 48 48 49 52 53 54 56 58 59 61 62 61 60 60 60 59 58 58 58 59 60 61 61 61 61 61 61 60 60 59
48 46 44 40 38 38 38 40 43 44 46 49 48 47 48 48 48 49 50 50 51 51 51 51 51 52 52 52 51 51 52 52 52 52 52 52 53 54 55 54 53 52 51 52 53 54 55 57 59 57 55 53 52 52 52 49 48 48 49 50 52 53 55 56 58 60 61 63 63 62 62 60 59 57 56 57 57 57 59 60 61 61 60 61 61 60 59 59
55 55 53 47 42 39 38 39 42 45 48 49 48 48 48 48 49 51 52 53 55 56 56 55 54 54 54 54 54 54 54 54 54 54 55 56 57 58 58 57 55 54 53 53 53 54 54 56 59 58 57 57 56 54 52 49 49 50 51 53 54 55 56 58 59 58 60 62 63 63 63 59 55 55 56 58 57 56 59 60 59 60 61 61 61 61 60 60
53 55 56 54 51 47 44 43 43 46 48 47 48 51 52 51 52 52 52 54 56 57 58 57 56 55 55 54 54 54 54 54 55 56 58 59 59 59 59 58 56 55 54 53 52 51 51 53 55 56 57 58 56 53 51 51 52 53 54 55 55 56 56 58 59 58 58 62 62 63 64 59 54 55 58 60 58 58 59 59 59 60 60 61 61 61 61 61
52 53 53 54 55 54 52 50 47 46 47 45 43 46 49 52 52 52 51 52 54 56 56 56 55 55 55 55 54 54 55 56 56 57 59 60 59 58 58 57 56 55 53 53 51 50 50 51 53 54 54 54 54 53 53 54 54 55 57 56 55 56 56 58 60 59 58 62 62 63 66 61 56 56 59 61 61 61 61 60 60 61 61 61 61 60 60 61
56 56 55 55 57 59 60 61 59 55 51 48 46 47 47 49 51 51 51 51 52 53 53 54 55 56 56 56 57 58 59 60 61 60 59 59 58 57 56 56 55 54 53 53 52 52 51 52 53 53 52 53 55 55 55 56 57 57 57 56 55 56 57 58 61 61 62 64 63 64 68 64 59 58 59 61 63 62 62 62 62 63 62 61 61 60 60 59
58 58 58 58 59 62 64 67 67 66 60 54 53 53 52 51 51 50 51 51 52 53 54 56 56 57 57 57 58 59 60 60 61 59 57 57 56 55 54 53 52 52 52 53 54 54 54 54 54 55 56 57 58 59 58 57 57 57 56 56 56 57 57 59 61 62 65 65 63 65 68 65 61 61 61 62 64 63 62 63 63 62 61 60 60 59 60 60
58 57 56 57 59 61 64 64 65 67 64 60 59 58 57 56 54 53 54 55 56 57 57 57 58 59 59 58 59 60 59 58 58 57 56 55 55 54 53 52 53 53 54 55 56 56 58 59 58 58 60 62 62 61 61 59 58 58 58 58 58 58 59 61 62 64 67 66 65 66 67 65 62 62 62 62 63 62 62 63 62 61 61 62 63 63 63 63
58 57 56 56 57 58 58 58 59 61 62 62 62 61 60 59 58 57 57 58 58 58 58 57 58 59 59 59 59 59 59 57 57 58 57 57 57 57 56 56 57 57 57 57 58 59 60 62 62 62 63 65 64 62 62 62 62 63 62 61 60 60 61 63 65 67 67 66 66 66 66 64 61 59 61 62 62 63 63 63 63 63 64 64 63 62 60 59
61 60 57 56 58 57 55 54 55 56 57 58 59 58 57 57 57 57 57 58 58 58 59 58 58 58 58 59 60 60 59 59 60 61 60 60 60 60 60 60 60 60 60 60 60 61 63 65 65 64 65 65 63 62 62 62 63 63 63 63 63 63 64 66 67 65 63 64 66 64 64 65 61 59 62 64 64 64 64 63 62 59 56 53 52 53 54 56
64 63 61 60 60 59 56 54 54 55 56 58 59 58 57 57 57 58 58 59 60 60 61 61 60 59 60 61 62 62 62 63 64 65 64 64 63 63 63 64 64 64 63 63 63 64 66 68 66 66 67 66 64 62 62 62 63 64 64 63 63 64 66 67 67 65 64 67 68 65 65 66 64 62 63 64 62 61 61 61 60 56 54 53 54 56 59 61
66 66 65 65 64 61 59 57 56 57 57 59 61 60 59 59 60 61 62 63 64 63 63 64 63 62 62 63 64 65 65 66 67 67 66 66 66 66 66 66 66 66 65 65 65 65 67 68 67 67 68 67 66 66 65 63 63 64 64 64 64 65 68 70 70 69 69 71 71 69 70 69 66 64 64 63 61 60 60 61 61 60 60 61 61 62 63 64
68 69 69 70 68 65 63 61 60 60 60 61 63 62 61 62 63 63 64 65 65 64 64 65 64 63 64 66 67 68 68 67 68 68 67 68 68 69 69 69 68 68 68 67 67 67 67 68 68 67 67 67 67 67 65 62 60 60 62 63 64 66 68 69 69 69 71 72 71 70 72 71 66 63 62 61 61 62 62 62 61 61 61 62 63 64 64 64
70 70 71 72 72 71 70 69 67 66 65 65 66 64 65 66 65 64 65 66 66 66 67 67 66 66 67 68 69 69 68 68 69 69 69 70 71 71 71 71 71 70 70 69 69 68 67 68 68 67 67 68 66 65 65 63 61 63 65 66 68 68 66 65 65 66 67 68 67 67 69 68 63 60 61 61 61 62 61 61 61 61 61 62 62 62 62 63
72 73 73 73 74 75 76 75 74 73 71 69 68 67 67 68 67 67 69 70 69 68 69 69 69 70 70 71 71 70 70 71 72 71 71 71 72 72 72 72 71 71 71 70 69 68 67 67 66 65 65 65 63 63 63 63 65 69 68 66 66 66 65 64 65 64 64 65 66 67 67 65 62 62 63 62 60 60 60 60 61 61 61 61 60 61 62 64
Wind_Direction
240 241 242 243 244 244 245 246 246 247 248 249 250 251 252 254 256 258 260 262 264 266 268 270 272 274 276 276 276 275 273 272 271 270 270 271 270 271 271 272 273 274 275 276 277 278 278 278 278 279 279 279 280 280 280 280 282 283 285 285 285 287 288 289 290 291 292 293 293 293 294 296 298 300 298 294 292 288 289 295 298 297 295 295 294 291 286 281
240 241 242 243 244 245 245 246 247 248 249 250 251 252 253 255 257 259 261 263 265 267 269 271 272 273 274 274 273 271 270 269 268 267 267 269 270 271 272 272 273 274 274 275 276 277 278 279 279 280 280 281 281 281 282 283 284 285 286 286 286 287 287 288 289 289 291 292 293 293 294 296 297 297 295 294 295 291 292 297 299 297 295 294 291 288 284 281
239 240 241 243 244 245 246 247 248 249 250 251 253 254 255 256 258 260 262 264 266 268 270 271 272 272 272 271 269 268 268 268 267 267 268 269 270 271 273 273 274 274 275 276 277 278 279 280 280 281 281 281 282 282 282 283 285 285 285 286 286 286 287 287 288 289 290 291 291 292 294 296 296 295 293 295 296 292 294 298 298 296 294 292 289 286 284 284
241 241 242 243 245 246 247 248 250 251 252 253 255 256 257 259 260 262 264 265 267 268 269 270 270 270 269 268 267 267 267 268 269 269 270 271 272 273 273 274 275 275 276 277 278 279 280 281 281 282 282 282 282 281 281 282 283 283 284 284 285 286 288 288 288 289 290 290 290 290 293 295 295 294 293 295 294 290 294 297 295 294 292 291 290 289 289 290
242 243 244 245 247 248 249 251 252 253 255 256 258 259 260 261 262 264 265 265 266 267 267 267 267 266 266 266 266 266 267 268 270 271 272 273 274 275 275 276 276 277 278 279 280 281 281 282 282 282 282 282 282 281 281 281 281 282 284 285 285 287 290 289 289 290 290 289 289 290 292 294 293 294 295 297 294 291 292 293 292 290 289 290 292 292 293 293
244 245 246 247 249 250 251 253 254 256 257 259 260 261 262 262 263 263 264 264 264 264 264 264 264 264 264 264 264 265 266 267 270 272 273 273 274 275 276 277 278 279 280 281 282 282 282 282 282 282 282 281 280 280 281 281 281 282 284 285 286 287 288 289 290 290 290 289 289 290 292 292 291 293 295 295 293 291 289 288 286 286 286 288 290 291 292 292
246 247 248 249 250 252 253 254 256 257 258 259 260 261 261 261 262 262 262 262 262 262 262 261 261 261 262 262 263 264 266 267 268 270 272 274 274 275 276 277 278 279 280 281 282 282 282 282 281 281 280 279 279 279 280 280 280 280 282 284 286 286 285 286 287 288 288 288 289 290 292 291 290 292 293 291 289 290 288 286 284 283 284 285 286 288 290 291
246 247 249 250 251 252 253 255 256 256 257 258 258 259 259 259 260 260 260 260 260 261 260 260 260 261 261 262 264 266 267 269 270 272 273 274 275 275 276 277 278 278 279 279 280 279 279 279 279 278 277 276 277 277 278 279 279 280 280 281 283 284 284 284 285 285 284 286 288 290 290 289 288 290 290 287 288 289 287 287 286 284 283 284 285 286 288 290
247 248 249 250 251 252 253 254 254 255 255 256 257 258 259 259 260 260 261 261 261 261 262 262 262 263 264 265 266 269 270 272 273 274 274 275 276 276 276 276 276 276 276 276 277 277 277 276 276 276 275 275 276 277 278 279 280 281 280 280 280 281 282 283 283 282 281 284 286 286 286 285 286 289 287 284 286 286 285 286 285 283 283 284 285 286 288 290
248 248 249 250 251 251 252 253 254 255 256 257 258 259 260 261 261 262 262 263 263 264 264 265 265 266 267 268 270 271 272 274 275 276 276 276 276 276 276 275 275 275 274 274 274 274 275 275 275 274 275 275 276 278 278 280 280 281 280 280 281 281 281 282 282 280 281 283 283 282 283 282 284 286 284 283 284 283 282 283 282 282 283 284 285 287 289 290
249 250 250 251 251 252 253 254 256 257 258 259 260 261 262 263 263 264 264 265 265 266 266 267 267 268 269 270 271 272 273 274 275 275 275 275 275 275 275 275 274 274 274 274 273 274 274 274 275 275 276 276 278 278 279 280 280 280 281 282 282 282 282 282 280 279 282 284 283 283 282 281 284 284 282 283 284 282 281 280 280 281 283 285 287 289 290 291
251 251 252 252 253 254 255 256 257 258 259 260 261 262 262 263 264 265 265 266 266 266 267 267 268 268 269 270 271 271 272 273 273 272 272 273 273 274 274 275 275 275 275 275 275 275 275 275 276 277 277 278 278 279 279 279 280 282 283 282 282 282 283 282 280 280 283 283 283 284 283 283 284 283 281 282 282 281 280 279 280 283 285 287 289 291 291 290
252 253 253 254 254 255 256 257 258 258 259 260 261 262 262 263 264 264 265 265 266 266 266 267 267 268 268 268 269 268 268 269 269 270 270 272 273 274 274 275 275 276 276 276 276 276 276 277 277 277 278 279 279 280 280 281 282 283 283 283 283 281 280 280 281 283 285 284 284 284 284 285 285 282 281 280 279 278 278 279 282 286 288 290 292 292 291 290
253 254 254 255 255 256 257 257 258 259 260 260 261 262 262 263 263 264 264 264 265 265 265 265 266 266 266 266 266 267 267 267 268 269 270 272 273 274 274 275 275 276 276 277 277 277 277 278 278 278 279 279 280 281 281 283 284 285 284 284 283 281 279 279 282 285 286 285 285 284 284 285 286 283 281 279 278 277 277 280 284 287 290 291 290 290 290 290
253 254 254 255 255 256 256 257 258 258 259 260 260 261 261 262 262 262 262 263 263 264 264 264 264 265 265 265 265 266 268 268 269 270 271 271 272 273 274 274 275 276 276 276 277 277 278 279 279 279 280 280 281 282 283 284 284 286 285 283 282 282 282 281 283 285 286 286 285 284 284 286 287 283 280 279 277 276 278 282 285 288 290 289 287 285 286 287
254 254 255 255 255 256 256 256 257 258 258 259 259 259 260 260 260 261 261 262 263 263 264 264 265 266 265 265 266 267 267 268 269 269 270 270 271 272 273 274 274 275 275 275 276 277 278 278 279 280 280 281 282 284 285 284 284 285 283 281 282 283 284 284 284 285 285 285 285 285 285 287 288 283 279 276 274 276 279 281 284 287 288 287 284 283 283 284
253 254 255 255 255 256 256 256 257 257 258 258 259 259 259 260 261 261 262 262 263 264 264 265 266 266 267 267 267 267 267 267 268 268 269 270 271 272 273 274 274 274 275 275 276 277 277 277 278 278 279 281 284 285 284 282 283 282 281 282 283 284 285 285 285 284 283 283 283 284 286 288 288 284 280 276 274 275 277 278 281 284 287 286 285 284 285 286
252 253 254 255 255 255 256 256 256 257 257 258 259 260 260 261 261 262 262 263 263 264 264 265 266 267 267 267 267 267 267 267 267 268 270 271 272 274 274 275 275 276 276 277 277 278 277 277 277 277 279 283 284 283 281 281 283 282 282 284 284 285 285 285 286 284 281 279 280 282 285 286 285 283 280 277 276 276 275 276 278 282 286 287 286 287 288 287
252 253 254 254 255 255 256 256 256 257 258 258 259 260 260 260 261 261 262 262 262 263 264 265 266 267 268 268 268 268 267 267 268 269 271 272 274 275 276 276 277 278 278 278 279 278 277 277 277 279 282 284 283 280 280 282 283 283 284 284 284 284 284 285 286 284 281 279 279 281 284 284 283 281 279 278 278 277 276 277 279 281 283 283 284 285 285 285
254 254 254 254 254 255 255 256 256 257 257 258 259 259 260 260 260 260 261 262 262 263 264 265 265 266 267 268 268 268 268 268 269 270 272 273 274 275 276 278 279 279 279 279 278 277 278 278 279 282 284 283 280 279 280 281 282 283 284 283 283 282 282 284 283 281 281 280 280 281 282 283 282 280 279 279 279 278 279 280 281 282 281 280 279 279 279 279
254 255 254 254 254 254 255 256 256 257 257 258 259 259 260 261 262 262 261 262 262 263 263 264 264 264 266 267 267 268 268 269 270 272 272 273 274 275 276 277 277 278 278 277 276 277 278 278 280 282 281 278 277 278 279 280 281 282 283 283 282 282 282 282 280 279 279 280 282 283 282 282 281 280 279 279 279 280 280 280 280 280 279 279 278 278 277 276
255 255 255 255 255 255 255 255 256 256 257 258 259 260 260 261 262 263 262 261 261 262 263 263 264 264 264 265 267 269 270 271 272 273 274 274 275 276 276 276 276 276 275 274 275 277 277 277 279 279 277 276 277 278 278 279 280 282 284 283 282 283 284 282 280 279 279 281 283 284 283 283 282 282 282 281 281 281 281 279 278 278 277 278 277 277 276 276
255 255 255 255 255 256 256 256 256 257 257 258 259 260 261 261 261 262 262 262 260 260 262 263 264 265 265 266 268 270 272 274 275 275 277 278 278 277 276 276 276 275 274 274 275 275 274 275 276 276 276 276 277 277 277 278 280 281 282 281 282 283 283 282 281 280 281 283 284 284 285 285 285 285 284 283 282 281 280 279 279 279 279 279 278 277 277 277
254 254 254 255 255 255 256 256 257 257 258 259 260 260 261 261 262 262 262 263 261 259 260 263 265 266 266 267 268 270 273 275 277 279 280 279 279 277 276 276 276 275 276 276 274 273 273 274 275 275 275 276 276 276 277 279 280 279 279 280 282 282 280 281 282 282 283 284 285 285 286 285 286 286 285 285 285 284 281 280 280 281 281 281 280 279 279 278
254 253 254 254 254 255 255 256 257 258 259 260 261 261 262 262 263 263 263 264 263 261 260 262 265 266 267 268 269 271 273 275 277 279 279 278 278 277 276 276 276 276 277 276 273 273 274 276 275 275 275 275 276 277 278 279 279 277 277 279 280 279 279 280 281 281 282 283 284 284 284 284 284 285 285 286 286 285 284 283 282 282 282 282 282 282 281 280
254 253 254 254 254 254 255 256 257 258 259 260 261 262 262 263 263 264 265 264 264 263 262 262 263 265 267 269 271 273 274 275 277 277 277 276 276 276 276 275 275 275 275 273 272 273 275 275 274 274 275 275 276 278 279 277 275 276 278 278 277 278 278 279 279 280 281 281 281 281 282 282 283 284 285 284 283 282 281 282 282 282 282 282 282 283 284 283
257 255 255 255 254 254 255 256 257 258 260 260 261 261 262 263 264 264 265 266 265 264 264 263 263 264 266 269 271 273 274 275 275 274 274 274 274 274 274 274 274 273 272 272 272 274 274 273 272 273 273 274 275 276 274 273 274 276 277 276 276 277 278 278 278 278 278 279 279 279 279 280 282 283 284 283 281 281 282 282 282 282 282 283 284 284 284 284
260 260 258 257 255 255 255 256 257 259 260 260 261 262 262 263 264 264 265 266 265 265 265 266 266 267 269 270 272 273 273 272 272 271 272 273 273 274 273 273 272 272 271 272 273 273 272 271 271 271 271 272 273 272 271 272 274 275 275 275 275 276 276 276 276 276 276 277 277 278 279 281 284 285 283 281 280 281 281 281 281 283 284 285 285 284 284 283
260 262 263 262 260 257 256 256 258 259 259 261 262 263 263 264 264 264 264 264 264 264 265 267 269 270 272 272 272 271 269 269 270 270 271 271 272 272 272 271 271 270 270 271 272 271 272 272 271 271 270 271 271 270 271 273 273 273 273 274 274 274 275 275 275 275 275 276 278 279 281 283 286 286 283 282 282 282 281 281 282 283 284 284 284 283 283 282
261 261 264 265 264 262 259 257 258 259 260 263 264 264 264 264 264 262 261 261 262 264 266 268 270 271 273 273 271 268 268 268 269 270 270 271 271 271 270 270 270 270 270 272 273 271 272 273 272 272 272 271 270 271 272 272 272 273 273 273 273 273 272 272 272 273 273 276 280 281 281 282 283 284 283 283 283 283 283 284 285 285 284 283 283 282 282 282
260 260 262 264 262 262 262 260 260 260 261 263 265 264 264 265 264 261 260 261 262 264 266 268 270 270 270 270 269 269 270 271 271 271 271 271 271 271 271 270 271 271 273 274 274 272 273 275 275 275 274 274 274 274 274 273 274 273 272 272 271 270 270 269 270 270 272 277 281 280 279 277 278 281 282 283 285 286 287 287 286 285 285 285 285 285 284 284
257 258 261 261 259 260 263 263 261 260 260 260 261 261 262 262 261 261 261 263 265 266 267 269 269 269 268 269 270 271 272 272 273 273 273 272 272 272 272 272 272 274 275 276 275 275 276 277 278 277 277 276 275 275 275 275 275 273 272 271 270 270 270 269 271 272 275 279 279 277 276 274 276 279 281 283 286 288 287 286 286 286 286 287 287 287 287 286
255 256 257 257 256 258 259 260 260 260 259 257 256 256 257 257 259 261 263 265 267 268 269 269 268 268 268 269 270 271 271 272 272 272 273 273 273 272 272 273 274 275 277 277 277 278 279 280 281 281 280 278 277 277 276 275 275 274 273 273 272 272 271 272 276 278 278 278 276 276 275 276 279 281 283 285 286 285 284 285 286 286 286 286 286 285 285 284
253 254 255 254 254 255 255 255 255 256 256 254 252 252 252 254 258 262 264 267 269 268 268 268 268 268 268 269 269 269 270 271 272 273 274 275 275 275 275 276 277 278 279 279 279 279 279 280 280 280 280 280 280 280 279 278 277 277 276 275 274 274 274 276 279 278 277 276 275 275 275 276 280 282 284 284 283 282 282 282 282 282 281 281 280 280 280 280
248 248 249 250 250 250 249 248 249 249 250 249 249 249 250 253 257 260 264 267 267 266 266 266 267 267 267 267 267 268 270 272 274 275 276 277 278 278 279 280 280 281 281 281 281 280 280 279 279 278 278 277 277 277 276 276 275 275 274 273 274 275 274 274 273 273 273 272 273 275 276 278 281 283 283 282 280 279 278 278 277 277 276 276 276 277 277 278
249 247 247 247 246 245 245 246 248 248 248 248 247 248 251 254 255 257 260 262 261 262 263 264 265 267 267 268 270 273 274 275 275 276 277 278 278 278 279 279 280 280 280 280 280 279 279 279 278 277 275 273 273 272 271 270 271 271 271 272 274 273 270 269 269 270 270 269 273 277 279 281 283 284 284 282 280 279 277 277 277 276 276 276 277 277 277 277
247 247 247 247 246 246 246 249 251 251 252 251 249 249 252 252 253 255 257 257 256 257 259 261 263 264 266 268 270 272 272 272 272 274 275 276 276 277 278 277 277 277 277 277 276 277 277 278 278 276 274 271 270 270 269 269 269 269 271 274 273 270 268 267 267 269 269 270 274 278 279 280 281 283 285 282 280 279 277 277 277 277 277 277 277 277 277 277
240 242 245 247 247 248 251 252 254 256 257 255 253 252 251 251 252 252 253 253 254 255 257 259 261 262 264 266 267 266 266 267 268 270 271 271 273 274 275 274 274 275 275 275 275 276 276 276 276 275 274 272 271 270 270 270 270 270 272 272 270 267 267 266 267 269 271 273 276 279 278 279 280 282 282 279 277 276 276 276 276 276 276 276 276 276 276 276
238 239 242 245 246 247 249 253 255 254 250 250 253 254 253 253 253 252 251 251 253 255 257 258 260 262 264 265 266 266 266 266 267 267 268 269 271 272 272 272 272 273 273 273 273 273 273 274 274 275 274 274 273 272 273 273 273 271 270 268 267 266 266 267 269 272 274 275 276 277 277 279 281 281 280 277 275 275 274 274 274 274 274 274 274 274 275 275
242 242 242 243 244 241 238 242 245 241 237 240 246 251 254 254 253 253 252 251 253 255 257 259 260 262 263 264 265 264 264 264 264 265 266 268 269 270 270 270 271 271 271 271 271 271 272 272 273 274 273 273 273 274 275 274 271 268 266 266 266 267 268 270 271 272 273 273 273 274 275 279 281 280 278 276 274 274 272 272 272 273 273 273 273 273 274 274
244 244 243 242 243 238 230 228 232 235 240 246 249 250 252 252 252 252 252 252 253 255 257 259 260 260 261 260 261 261 261 261 263 264 266 267 268 270 271 271 272 271 271 271 271 271 271 271 272 273 273 274 275 275 274 272 270 268 267 267 268 269 270 270 270 271 272 271 272 273 274 277 280 279 277 275 274 274 272 272 273 273 273 273 273 273 273 274
242 244 243 240 239 236 231 231 233 238 245 250 250 249 249 250 250 250 250 251 253 254 256 257 258 258 257 257 258 260 263 265 266 267 268 269 270 271 272 272 272 272 272 272 272 272 272 271 271 273 273 274 273 272 271 270 269 268 268 269 271 272 272 272 272 274 273 271 272 273 272 276 281 279 276 276 275 275 274 274 274 274 274 275 274 274 274 274
245 246 245 242 240 237 236 237 240 243 246 247 246 245 244 245 246 247 248 249 251 252 253 254 255 256 256 257 259 261 265 267 268 269 270 270 270 271 271 271 272 272 273 273 273 274 273 273 273 274 274 272 270 270 270 270 271 271 272 274 274 274 274 273 273 274 272 271 273 272 272 278 281 278 275 275 275 275 275 275 275 275 275 275 275 275 274 274
249 249 247 245 244 241 240 240 241 244 247 247 247 246 244 243 243 244 246 247 249 252 253 254 254 255 258 260 261 263 266 268 269 269 270 270 270 270 269 269 269 271 272 273 275 275 275 275 274 274 273 272 272 273 273 274 275 274 274 275 274 273 273 272 272 272 271 271 273 271 272 276 277 275 274 274 274 274 274 274 274 274 275 275 275 274 274 274
251 250 248 246 245 244 243 243 243 244 245 247 249 250 249 247 245 245 246 249 253 258 260 260 260 261 262 264 265 266 267 268 269 269 269 270 271 270 268 268 270 272 273 274 275 275 274 274 273 272 273 274 276 277 277 277 275 273 273 273 272 272 272 272 272 271 270 271 271 270 271 273 273 273 273 273 272 272 272 273 273 274 274 274 274 275 275 275
250 250 248 247 246 245 246 247 247 248 248 250 252 252 253 254 254 253 254 256 259 261 262 263 263 264 265 266 267 267 267 267 268 268 269 269 269 268 268 269 271 273 274 275 274 273 272 272 272 272 272 274 275 276 276 275 274 274 274 273 272 272 271 272 271 270 270 271 270 270 271 272 271 272 273 272 271 272 273 274 275 276 276 276 276 275 274 274
250 250 249 248 247 247 248 249 250 252 253 254 255 256 256 258 258 258 259 260 261 262 263 263 264 265 266 266 267 267 267 267 267 268 269 268 268 269 270 271 272 273 273 274 274 273 272 271 272 272 272 273 273 273 272 271 272 272 271 271 271 271 272 272 271 270 269 269 268 269 270 270 271 271 272 272 273 273 274 275 275 275 275 273 272 271 271 272
250 250 250 249 248 249 250 251 253 255 256 256 257 257 257 258 259 260 260 261 261 262 263 264 265 266 266 266 266 266 266 266 267 268 269 268 268 269 270 270 271 272 274 274 274 273 272 272 273 272 271 272 271 270 269 269 269 269 270 271 272 273 274 272 269 268 267 267 269 271 270 270 271 272 273 273 274 274 274 273 272 270 268 267 268 269 271 272
252 251 250 249 249 250 251 253 256 258 260 260 260 259 259 260 260 259 259 259 260 260 262 263 264 265 265 265 265 265 265 266 267 268 268 269 269 270 270 271 272 273 274 274 273 273 271 272 273 271 271 271 270 269 269 268 269 269 269 269 270 271 271 270 268 269 270 270 272 274 272 272 274 274 274 274 274 273 272 271 271 271 272 272 272 272 272 272
252 250 249 249 250 250 252 253 256 260 262 263 264 264 264 263 262 261 260 260 260 261 262 263 263 264 264 264 264 265 266 267 268 268 269 270 271 271 272 273 274 274 274 273 273 272 271 272 273 273 271 271 271 270 269 268 267 267 267 268 270 270 268 268 270 272 273 273 274 274 274 274 275 276 276 275 274 273 273 274 276 276 276 275 275 275 275 276
252 250 249 250 251 251 253 254 257 261 263 265 267 269 267 266 265 263 262 261 262 263 263 264 264 263 263 263 264 266 268 267 267 268 270 271 272 273 274 274 274 274 273 273 272 272 271 272 273 273 271 270 271 270 268 266 264 262 266 272 274 273 272 273 274 273 272 273 274 273 273 275 277 276 276 275 275 275 277 278 278 277 277 277 277 278 278 278
251 251 251 252 253 254 255 258 260 263 265 267 269 269 267 266 265 262 261 262 263 263 263 264 264 264 264 264 265 266 267 266 268 269 270 271 272 273 274 274 274 273 273 273 273 273 273 273 273 273 272 272 271 269 266 264 261 262 269 274 274 274 276 276 274 272 272 273 273 274 275 277 277 276 275 275 276 277 277 277 277 277 277 278 279 279 278 278
Height
5863 5864 5865 5865 5866 5867 5867 5868 5869 5869 5870 5870 5871 5871 5872 5872 5873 5873 5873 5873 5874 5874 5874 5874 5874 5874 5874 5874 5874 5874 5874 5874 5874 5874 5874 5874 5873 5873 5873 5873 5873 5873 5873 5873 5873 5873 5873 5873 5873 5872 5872 5872 5872 5871 5871 5871 5871 5871 5871 5870 5869 5869 5868 5867 5867 5867 5867 5866 5865 5865 5865 5865 5864 5864 5863 5863 5863 5861 5859 5858 5857 5855 5854 5854 5853 5853 5852 5851
5861 5862 5863 5863 5864 5865 5865 5866 5867 5867 5868 5868 5869 5869 5870 5870 5870 5871 5871 5871 5871 5872 5872 5872 5872 5872 5872 5872 5872 5872 5872 5872 5872 5872 5872 5872 5872 5871 5871 5872 5871 5871 5871 5871 5872 5872 5871 5871 5871 5870 5870 5870 5869 5869 5869 5869 5869 5868 5868 5867 5867 5866 5865 5865 5865 5864 5865 5864 5863 5863 5863 5863 5863 5862 5861 5861 5861 5858 5857 5857 5855 5853 5851 5851 5851 5850 5850 5849
5859 5860 5860 5861 5862 5862 5863 5864 5864 5865 5866 5866 5867 5867 5868 5868 5868 5868 5869 5869 5869 5869 5870 5870 5870 5870 5870 5870 5870 5870 5869 5870 5870 5870 5870 5870 5870 5870 5870 5870 5869 5869 5869 5869 5869 5869 5869 5869 5868 5868 5868 5868 5867 5867 5866 5867 5867 5866 5865 5865 5864 5864 5863 5863 5863 5862 5862 5862 5861 5860 5860 5860 5860 5860 5859 5860 5859 5856 5855 5855 5853 5850 5848 5848 5848 5848 5848 5848
5856 5857 5858 5859 5859 5860 5861 5861 5862 5863 5863 5864 5864 5865 5865 5865 5866 5866 5866 5866 5867 5867 5867 5867 5867 5867 5867 5868 5868 5867 5867 5867 5868 5868 5868 5868 5868 5868 5868 5867 5867 5867 5867 5867 5867 5867 5867 5866 5866 5866 5865 5865 5865 5864 5864 5865 5864 5864 5863 5862 5862 5862 5861 5860 5860 5860 5859 5859 5858 5858 5858 5858 5856 5856 5856 5857 5858 5855 5853 5853 5851 5848 5845 5844 5844 5845 5846 5846
5853 5854 5855 5856 5857 5857 5858 5859 5859 5860 5861 5861 5862 5862 5862 5863 5863 5863 5864 5864 5864 5864 5865 5865 5865 5865 5865 5865 5865 5865 5865 5865 5865 5865 5865 5866 5865 5865 5865 5865 5865 5864 5864 5864 5864 5864 5864 5864 5863 5863 5862 5862 5862 5861 5861 5862 5862 5861 5860 5860 5860 5860 5859 5857 5857 5857 5856 5856 5855 5855 5856 5855 5853 5853 5853 5854 5855 5853 5851 5850 5848 5846 5843 5841 5841 5842 5844 5844
5850 5851 5852 5853 5854 5854 5855 5856 5856 5857 5858 5858 5859 5859 5859 5860 5860 5860 5861 5861 5861 5861 5862 5862 5862 5862 5862 5863 5863 5863 5863 5863 5863 5863 5863 5863 5863 5863 5862 5862 5862 5862 5862 5861 5861 5861 5861 5860 5860 5860 5859 5859 5859 5858 5858 5859 5859 5859 5858 5857 5857 5858 5857 5855 5854 5854 5853 5852 5852 5852 5853 5852 5851 5851 5851 5850 5851 5850 5849 5848 5846 5844 5841 5840 5840 5839 5840 5841
5847 5848 5849 5849 5850 5851 5852 5853 5853 5854 5854 5855 5855 5856 5856 5857 5857 5857 5857 5858 5858 5858 5859 5859 5859 5860 5860 5860 5860 5861 5860 5860 5861 5861 5860 5860 5860 5860 5860 5859 5859 5859 5859 5858 5858 5858 5857 5857 5857 5857 5856 5856 5856 5856 5856 5856 5856 5857 5856 5855 5854 5855 5854 5853 5852 5851 5849 5849 5849 5850 5851 5849 5848 5849 5849 5847 5847 5847 5845 5845 5844 5842 5840 5839 5838 5837 5837 5837
5844 5844 5845 5846 5847 5848 5848 5849 5850 5850 5851 5852 5852 5852 5853 5853 5854 5854 5854 5854 5855 5855 5856 5856 5856 5857 5857 5857 5858 5858 5857 5857 5858 5858 5858 5857 5857 5857 5857 5857 5856 5856 5856 5855 5855 5855 5854 5854 5854 5854 5854 5853 5853 5853 5853 5853 5853 5854 5853 5853 5852 5851 5851 5851 5850 5849 5847 5846 5847 5847 5848 5846 5844 5846 5846 5843 5844 5844 5842 5841 5841 5839 5838 5837 5836 5835 5835 5835
5840 5841 5842 5842 5843 5844 5845 5845 5846 5847 5848 5848 5849 5849 5850 5850 5850 5851 5851 5851 5851 5852 5852 5853 5853 5854 5854 5855 5855 5855 5854 5854 5855 5855 5855 5854 5854 5854 5853 5853 5853 5852 5852 5852 5851 5851 5851 5851 5851 5851 5851 5851 5851 5850 5850 5850 5850 5850 5850 5850 5850 5849 5849 5848 5847 5846 5844 5845 5844 5844 5845 5844 5842 5844 5843 5840 5841 5841 5838 5838 5837 5836 5836 5835 5834 5833 5833 5833
5836 5837 5838 5839 5839 5840 5841 5842 5842 5843 5844 5844 5845 5845 5846 5846 5847 5847 5847 5848 5848 5849 5849 5850 5850 5851 5851 5851 5852 5852 5850 5851 5851 5851 5851 5850 5850 5850 5850 5850 5849 5849 5849 5849 5848 5848 5848 5847 5848 5847 5847 5848 5848 5847 5847 5846 5846 5846 5846 5847 5847 5846 5846 5845 5844 5842 5841 5842 5841 5840 5843 5842 5840 5841 5839 5836 5838 5838 5836 5835 5834 5833 5833 5832 5832 5831 5831 5831
5832 5833 5834 5835 5836 5836 5837 5838 5839 5839 5840 5840 5841 5841 5842 5842 5843 5843 5844 5844 5845 5845 5845 5846 5846 5847 5848 5848 5849 5848 5847 5848 5848 5847 5847 5847 5847 5846 5846 5846 5846 5846 5845 5845 5845 5845 5845 5844 5844 5844 5844 5844 5845 5844 5843 5843 5842 5842 5842 5843 5843 5842 5843 5842 5839 5838 5838 5838 5837 5836 5838 5839 5838 5838 5836 5834 5834 5833 5832 5831 5830 5830 5830 5830 5830 5829 5829 5828
5828 5829 5830 5831 5831 5832 5833 5834 5834 5835 5836 5836 5837 5837 5838 5838 5839 5839 5840 5840 5841 5841 5842 5842 5843 5843 5844 5845 5845 5844 5844 5844 5844 5843 5843 5843 5843 5843 5843 5843 5842 5842 5842 5842 5842 5842 5841 5840 5840 5840 5840 5840 5841 5840 5839 5839 5839 5839 5838 5839 5839 5839 5839 5838 5835 5835 5836 5835 5833 5832 5833 5836 5836 5834 5832 5831 5830 5829 5828 5827 5827 5827 5828 5828 5828 5827 5826 5825
5824 5824 5825 5826 5827 5828 5829 5829 5830 5831 5831 5832 5832 5833 5834 5834 5835 5835 5836 5836 5837 5837 5838 5838 5839 5839 5840 5841 5841 5841 5841 5841 5840 5840 5840 5840 5840 5839 5839 5839 5839 5839 5838 5838 5838 5838 5837 5837 5836 5836 5836 5836 5837 5836 5835 5835 5835 5835 5834 5834 5835 5835 5836 5835 5831 5831 5832 5831 5830 5828 5827 5831 5833 5831 5829 5828 5827 5825 5825 5824 5824 5825 5825 5825 5825 5824 5823 5821
5819 5820 5821 5821 5822 5823 5824 5825 5825 5826 5827 5827 5828 5829 5829 5830 5830 5831 5831 5832 5832 5833 5833 5834 5835 5835 5836 5838 5838 5837 5837 5837 5837 5837 5836 5836 5836 5835 5835 5835 5835 5835 5835 5834 5834 5833 5833 5833 5832 5832 5832 5832 5832 5832 5832 5832 5831 5831 5830 5829 5829 5829 5831 5832 5829 5828 5828 5827 5826 5824 5823 5826 5829 5828 5825 5824 5823 5822 5821 5821 5822 5822 5822 5821 5821 5820 5819 5818
5815 5815 5816 5817 5818 5818 5819 5820 5820 5821 5822 5823 5824 5824 5825 5825 5826 5827 5827 5828 5828 5829 5829 5830 5831 5831 5833 5834 5834 5834 5834 5833 5833 5833 5832 5832 5832 5831 5831 5831 5831 5831 5831 5831 5830 5830 5829 5829 5828 5828 5828 5828 5828 5828 5828 5828 5827 5827 5825 5824 5824 5823 5826 5828 5827 5825 5824 5823 5821 5820 5819 5821 5825 5825 5822 5821 5819 5818 5818 5819 5819 5819 5818 5817 5817 5816 5815 5814
5810 5811 5811 5812 5813 5814 5814 5815 5816 5817 5818 5818 5819 5820 5820 5821 5822 5822 5823 5823 5824 5825 5825 5826 5826 5827 5828 5830 5830 5830 5830 5829 5829 5829 5828 5828 5828 5828 5828 5827 5827 5827 5827 5827 5826 5826 5826 5825 5824 5824 5824 5824 5825 5825 5824 5822 5823 5824 5820 5819 5819 5819 5820 5823 5824 5822 5820 5819 5817 5816 5815 5817 5819 5820 5819 5817 5815 5815 5816 5816 5816 5816 5815 5814 5813 5812 5812 5812
5805 5806 5807 5807 5808 5809 5810 5811 5812 5812 5813 5814 5815 5815 5816 5816 5817 5818 5818 5819 5819 5820 5820 5821 5822 5822 5823 5825 5826 5825 5825 5825 5825 5824 5824 5824 5824 5824 5824 5823 5823 5823 5823 5823 5822 5822 5822 5821 5820 5820 5820 5821 5822 5821 5818 5817 5819 5819 5816 5815 5815 5815 5815 5817 5819 5819 5817 5815 5813 5812 5812 5813 5814 5814 5814 5812 5812 5813 5813 5813 5813 5812 5811 5810 5809 5809 5808 5808
5800 5801 5802 5803 5803 5804 5805 5806 5807 5808 5809 5810 5810 5811 5812 5812 5813 5813 5814 5814 5815 5816 5816 5817 5817 5817 5818 5820 5820 5821 5820 5820 5820 5820 5820 5820 5820 5820 5820 5819 5819 5819 5818 5818 5818 5818 5817 5816 5816 5816 5817 5818 5818 5816 5813 5813 5814 5813 5812 5812 5811 5811 5811 5812 5814 5814 5812 5811 5810 5809 5809 5809 5809 5809 5809 5807 5808 5809 5809 5809 5809 5808 5807 5806 5806 5805 5804 5803
5795 5796 5797 5797 5798 5799 5800 5801 5802 5803 5804 5805 5805 5806 5806 5807 5808 5808 5809 5810 5810 5811 5811 5812 5813 5813 5813 5815 5815 5815 5815 5815 5816 5816 5817 5817 5816 5816 5815 5815 5815 5815 5814 5814 5814 5813 5811 5811 5811 5812 5815 5816 5814 5811 5809 5809 5809 5808 5808 5807 5807 5807 5807 5808 5809 5808 5806 5805 5806 5805 5805 5805 5804 5805 5804 5803 5804 5804 5803 5804 5804 5804 5803 5802 5802 5801 5800 5799
5790 5791 5792 5792 5793 5794 5795 5796 5797 5798 5799 5799 5800 5801 5801 5802 5803 5803 5804 5805 5806 5806 5806 5807 5808 5808 5809 5810 5810 5810 5810 5811 5811 5812 5813 5813 5812 5811 5811 5811 5811 5810 5810 5810 5809 5807 5807 5806 5807 5810 5812 5811 5808 5807 5806 5806 5805 5804 5804 5803 5803 5802 5803 5804 5804 5802 5800 5799 5800 5801 5800 5800 5799 5799 5800 5799 5799 5798 5798 5798 5798 5798 5798 5798 5798 5797 5797 5796
5785 5785 5786 5787 5788 5789 5790 5791 5793 5793 5794 5794 5795 5796 5796 5797 5797 5798 5799 5800 5801 5801 5802 5802 5802 5804 5805 5804 5804 5804 5805 5806 5807 5808 5808 5808 5807 5807 5807 5806 5806 5806 5806 5805 5803 5803 5803 5802 5804 5807 5806 5804 5802 5802 5802 5801 5801 5800 5800 5799 5798 5798 5799 5799 5798 5797 5795 5793 5794 5795 5795 5795 5795 5794 5795 5795 5795 5794 5793 5793 5793 5793 5793 5793 5793 5793 5792 5792
5779 5780 5781 5782 5783 5784 5785 5786 5787 5788 5789 5789 5790 5790 5791 5792 5792 5792 5793 5794 5796 5797 5796 5797 5797 5798 5800 5799 5799 5799 5799 5801 5803 5803 5803 5802 5802 5802 5801 5800 5801 5801 5800 5799 5798 5799 5797 5797 5801 5802 5799 5797 5797 5797 5797 5796 5796 5796 5795 5794 5793 5794 5794 5793 5793 5791 5790 5789 5789 5789 5788 5789 5789 5789 5789 5790 5790 5790 5789 5789 5789 5788 5788 5788 5788 5788 5788 5787
5774 5775 5775 5776 5777 5779 5780 5781 5782 5782 5783 5784 5785 5785 5785 5786 5786 5787 5787 5787 5791 5793 5792 5792 5792 5793 5794 5794 5794 5793 5793 5795 5797 5797 5797 5796 5796 5796 5795 5794 5795 5795 5794 5794 5795 5793 5790 5792 5796 5795 5792 5792 5792 5791 5791 5790 5791 5791 5790 5788 5789 5790 5789 5787 5787 5786 5785 5785 5784 5784 5783 5783 5783 5783 5784 5784 5786 5786 5785 5784 5783 5783 5783 5783 5783 5783 5782 5782
5768 5769 5769 5771 5772 5773 5774 5775 5776 5777 5778 5779 5779 5780 5780 5780 5781 5781 5781 5780 5783 5788 5788 5787 5786 5787 5788 5788 5789 5789 5789 5790 5791 5791 5791 5790 5790 5790 5789 5789 5789 5788 5789 5790 5789 5786 5785 5788 5790 5788 5787 5786 5786 5785 5785 5786 5786 5785 5784 5784 5785 5785 5783 5782 5782 5782 5781 5780 5780 5779 5778 5779 5779 5779 5778 5779 5780 5780 5779 5779 5778 5778 5777 5777 5777 5777 5777 5776
5761 5762 5763 5765 5766 5767 5769 5770 5771 5771 5773 5773 5774 5774 5774 5775 5775 5775 5776 5774 5774 5780 5784 5783 5781 5781 5782 5783 5783 5784 5784 5784 5785 5786 5785 5784 5784 5783 5784 5784 5783 5783 5785 5784 5782 5780 5782 5785 5784 5782 5782 5781 5780 5780 5781 5781 5780 5779 5779 5780 5780 5779 5778 5778 5777 5777 5776 5776 5776 5774 5773 5773 5776 5775 5774 5775 5775 5774 5773 5772 5772 5772 5772 5771 5770 5770 5770 5770
5754 5755 5757 5758 5760 5762 5764 5764 5765 5766 5767 5768 5768 5769 5769 5769 5770 5770 5770 5768 5767 5772 5777 5778 5777 5776 5776 5777 5778 5779 5778 5779 5780 5780 5779 5779 5778 5778 5778 5778 5778 5778 5778 5778 5776 5776 5779 5780 5777 5776 5777 5776 5776 5776 5777 5775 5773 5774 5776 5776 5774 5774 5774 5773 5772 5772 5771 5771 5771 5770 5768 5768 5770 5771 5770 5770 5770 5769 5768 5767 5767 5766 5766 5765 5765 5765 5764 5764
5748 5749 5750 5752 5754 5756 5758 5758 5760 5761 5762 5762 5762 5763 5763 5764 5764 5765 5765 5761 5760 5765 5768 5769 5771 5772 5772 5773 5773 5774 5773 5773 5774 5773 5773 5773 5773 5773 5772 5773 5773 5773 5772 5772 5771 5773 5774 5773 5772 5772 5772 5772 5772 5772 5771 5769 5768 5770 5771 5770 5769 5769 5769 5768 5768 5767 5766 5766 5765 5764 5763 5763 5765 5767 5765 5764 5764 5763 5762 5761 5761 5761 5760 5760 5760 5760 5759 5758
5743 5744 5745 5746 5748 5750 5751 5753 5754 5755 5755 5755 5756 5757 5757 5758 5759 5760 5760 5756 5754 5757 5759 5761 5763 5766 5768 5768 5768 5768 5767 5767 5768 5767 5768 5768 5768 5768 5767 5767 5768 5767 5767 5767 5767 5768 5768 5767 5767 5768 5767 5768 5768 5767 5765 5765 5766 5767 5766 5765 5765 5765 5764 5763 5763 5762 5761 5761 5759 5758 5759 5759 5760 5762 5760 5757 5758 5759 5757 5756 5755 5755 5755 5755 5754 5754 5753 5753
5738 5739 5739 5740 5742 5743 5745 5746 5747 5747 5748 5749 5750 5750 5751 5752 5753 5753 5753 5750 5748 5749 5752 5754 5756 5758 5761 5762 5762 5762 5761 5762 5762 5762 5763 5763 5762 5763 5762 5762 5762 5762 5762 5762 5762 5763 5762 5762 5762 5762 5763 5763 5763 5761 5761 5761 5761 5762 5761 5761 5760 5760 5759 5758 5757 5756 5756 5755 5754 5754 5756 5755 5755 5755 5752 5750 5752 5753 5751 5751 5751 5750 5750 5749 5748 5748 5747 5747
5733 5734 5734 5734 5736 5738 5738 5740 5741 5741 5742 5743 5744 5744 5745 5744 5745 5745 5743 5742 5743 5744 5746 5748 5750 5752 5753 5753 5754 5755 5755 5756 5756 5757 5757 5757 5757 5757 5757 5757 5757 5757 5757 5757 5757 5758 5757 5756 5756 5757 5757 5758 5757 5757 5757 5757 5757 5757 5757 5756 5755 5754 5754 5753 5752 5751 5750 5750 5751 5752 5753 5751 5749 5748 5746 5745 5745 5745 5745 5745 5745 5744 5743 5743 5742 5742 5741 5740
5727 5728 5728 5729 5731 5732 5733 5734 5735 5735 5736 5738 5738 5738 5738 5738 5738 5736 5734 5736 5739 5739 5741 5742 5743 5745 5746 5746 5746 5747 5748 5749 5750 5750 5750 5751 5751 5751 5751 5751 5750 5751 5751 5751 5752 5752 5751 5751 5751 5752 5752 5752 5752 5752 5752 5752 5752 5752 5751 5751 5749 5748 5748 5747 5746 5746 5744 5746 5747 5748 5747 5745 5743 5742 5742 5740 5739 5739 5739 5739 5738 5737 5736 5736 5735 5735 5734 5733
5722 5722 5723 5724 5725 5726 5728 5729 5728 5729 5730 5733 5733 5732 5733 5731 5729 5728 5729 5733 5734 5735 5736 5737 5736 5738 5738 5739 5739 5740 5741 5741 5742 5743 5743 5744 5744 5745 5745 5745 5745 5745 5745 5746 5746 5746 5746 5746 5746 5747 5747 5747 5747 5747 5747 5747 5747 5747 5746 5745 5743 5743 5742 5740 5741 5740 5740 5742 5742 5741 5739 5737 5737 5739 5738 5737 5736 5734 5733 5731 5731 5730 5730 5729 5728 5727 5727 5726
5716 5716 5717 5718 5720 5721 5722 5723 5722 5723 5724 5726 5726 5726 5726 5724 5723 5724 5726 5729 5730 5730 5731 5731 5730 5731 5731 5732 5733 5733 5734 5734 5735 5735 5736 5737 5738 5739 5740 5740 5740 5740 5739 5740 5739 5739 5740 5741 5741 5741 5742 5742 5742 5742 5742 5742 5741 5740 5740 5739 5738 5737 5735 5735 5737 5735 5734 5735 5734 5733 5731 5729 5732 5734 5734 5734 5732 5729 5727 5726 5725 5724 5724 5723 5722 5721 5720 5719
5710 5709 5710 5712 5714 5716 5717 5717 5716 5717 5717 5718 5719 5719 5717 5716 5718 5720 5722 5724 5726 5725 5725 5724 5724 5725 5726 5727 5727 5727 5728 5728 5728 5729 5730 5731 5732 5733 5734 5734 5734 5734 5733 5733 5733 5734 5735 5736 5736 5736 5736 5736 5736 5736 5736 5735 5735 5734 5734 5733 5732 5732 5730 5730 5731 5728 5726 5727 5726 5726 5724 5724 5728 5730 5729 5728 5726 5723 5722 5721 5720 5719 5718 5717 5716 5715 5714 5713
5704 5703 5703 5705 5707 5709 5710 5710 5711 5711 5710 5710 5711 5710 5709 5712 5714 5715 5717 5719 5718 5718 5719 5718 5718 5719 5720 5721 5721 5722 5723 5722 5723 5724 5724 5725 5726 5727 5727 5727 5727 5727 5727 5727 5727 5727 5728 5729 5731 5731 5731 5731 5731 5731 5730 5729 5729 5728 5728 5726 5726 5728 5726 5724 5723 5722 5720 5719 5719 5719 5717 5718 5723 5723 5723 5721 5718 5717 5716 5715 5714 5713 5711 5710 5709 5709 5708 5706
5697 5696 5697 5699 5702 5703 5703 5704 5704 5703 5703 5703 5702 5702 5705 5709 5709 5709 5711 5712 5711 5711 5712 5712 5713 5713 5713 5714 5715 5715 5716 5717 5717 5717 5718 5719 5720 5721 5722 5722 5722 5721 5721 5721 5721 5720 5721 5722 5724 5725 5726 5726 5725 5725 5724 5723 5722 5722 5721 5721 5722 5722 5720 5716 5714 5715 5714 5710 5710 5713 5711 5712 5715 5716 5716 5713 5711 5711 5709 5707 5707 5704 5703 5703 5701 5701 5700 5699
5691 5691 5691 5693 5696 5696 5697 5698 5697 5696 5696 5695 5694 5697 5702 5704 5703 5703 5704 5705 5705 5705 5705 5705 5707 5707 5708 5709 5709 5710 5710 5711 5711 5712 5712 5713 5714 5715 5717 5716 5717 5716 5716 5716 5714 5714 5714 5715 5718 5718 5718 5719 5719 5718 5718 5717 5716 5715 5715 5717 5717 5714 5712 5711 5707 5707 5707 5702 5702 5707 5707 5707 5708 5708 5709 5708 5705 5703 5701 5699 5699 5697 5696 5694 5693 5692 5691 5691
5684 5684 5685 5686 5689 5691 5692 5692 5690 5690 5689 5686 5689 5694 5696 5697 5699 5699 5698 5699 5699 5698 5698 5699 5700 5701 5702 5703 5704 5704 5704 5705 5706 5706 5707 5708 5708 5710 5711 5711 5711 5711 5710 5710 5709 5709 5708 5708 5711 5712 5710 5711 5712 5711 5711 5711 5710 5710 5711 5711 5710 5706 5704 5704 5700 5699 5700 5695 5694 5698 5700 5701 5701 5701 5703 5701 5698 5697 5694 5692 5691 5690 5689 5686 5685 5684 5683 5683
5677 5678 5679 5681 5684 5685 5687 5686 5685 5684 5681 5679 5684 5688 5690 5692 5694 5693 5692 5692 5692 5691 5692 5693 5694 5695 5696 5697 5698 5698 5698 5699 5700 5700 5701 5702 5703 5704 5705 5705 5705 5706 5705 5704 5702 5702 5701 5699 5702 5705 5703 5702 5704 5704 5704 5705 5705 5704 5703 5702 5701 5699 5697 5696 5694 5694 5693 5688 5686 5687 5689 5694 5696 5695 5694 5691 5691 5691 5688 5685 5684 5683 5682 5680 5678 5678 5676 5676
5671 5672 5674 5677 5679 5680 5681 5681 5680 5677 5674 5675 5679 5682 5685 5687 5687 5686 5685 5685 5685 5685 5686 5687 5688 5689 5691 5692 5692 5692 5692 5693 5694 5694 5695 5696 5697 5698 5698 5699 5700 5699 5698 5697 5696 5695 5694 5691 5694 5698 5696 5694 5696 5697 5698 5699 5697 5696 5695 5694 5694 5693 5691 5689 5688 5688 5686 5680 5678 5677 5677 5686 5692 5689 5685 5681 5682 5684 5680 5678 5678 5676 5674 5672 5671 5670 5669 5669
5663 5664 5666 5671 5673 5674 5674 5672 5672 5671 5669 5671 5674 5676 5678 5679 5680 5679 5678 5678 5679 5679 5680 5681 5682 5683 5685 5686 5687 5687 5686 5686 5687 5687 5687 5689 5691 5691 5691 5692 5692 5691 5690 5689 5689 5688 5687 5684 5685 5689 5690 5688 5689 5691 5691 5690 5688 5687 5686 5686 5687 5687 5686 5682 5678 5681 5680 5673 5672 5670 5666 5677 5687 5683 5676 5672 5673 5674 5672 5671 5671 5668 5666 5665 5664 5663 5662 5661
5655 5655 5659 5663 5664 5666 5666 5663 5664 5665 5665 5666 5669 5670 5670 5671 5672 5673 5672 5672 5672 5673 5674 5675 5676 5677 5678 5679 5680 5680 5679 5679 5680 5680 5680 5682 5684 5684 5684 5684 5683 5683 5683 5682 5682 5681 5680 5678 5676 5679 5683 5682 5680 5680 5682 5681 5679 5679 5677 5679 5681 5680 5678 5674 5669 5673 5673 5666 5666 5663 5657 5667 5679 5676 5670 5666 5664 5665 5664 5664 5664 5660 5658 5657 5655 5655 5654 5653
5647 5648 5651 5654 5655 5657 5657 5655 5656 5658 5659 5661 5663 5662 5663 5664 5666 5666 5666 5666 5666 5667 5668 5669 5670 5671 5671 5672 5672 5672 5672 5672 5672 5674 5674 5675 5678 5678 5678 5677 5676 5676 5676 5674 5675 5675 5673 5672 5670 5670 5673 5674 5671 5671 5672 5672 5672 5671 5671 5674 5674 5672 5671 5668 5663 5663 5661 5657 5659 5656 5648 5657 5667 5666 5663 5660 5656 5657 5658 5657 5654 5651 5650 5650 5648 5647 5646 5645
5639 5640 5643 5645 5646 5647 5647 5648 5651 5652 5652 5654 5655 5655 5656 5658 5660 5661 5661 5661 5660 5660 5661 5662 5664 5664 5664 5665 5664 5665 5666 5664 5664 5667 5668 5668 5671 5672 5671 5671 5670 5670 5669 5668 5668 5668 5666 5665 5664 5662 5661 5662 5662 5662 5664 5666 5667 5665 5665 5666 5666 5665 5664 5661 5657 5655 5649 5648 5653 5648 5642 5649 5655 5655 5655 5654 5650 5650 5651 5648 5645 5643 5643 5642 5640 5639 5638 5637
5631 5632 5634 5636 5636 5637 5638 5641 5645 5645 5646 5647 5647 5647 5649 5651 5654 5656 5655 5654 5653 5653 5654 5654 5655 5656 5657 5657 5657 5658 5659 5658 5657 5659 5662 5663 5664 5665 5664 5664 5664 5665 5664 5662 5662 5661 5658 5656 5656 5654 5652 5652 5654 5656 5657 5659 5659 5656 5657 5659 5658 5658 5657 5653 5651 5646 5640 5641 5645 5640 5637 5642 5646 5647 5647 5646 5643 5643 5642 5639 5637 5637 5637 5635 5633 5632 5630 5629
5622 5623 5626 5628 5628 5629 5632 5636 5636 5637 5639 5640 5638 5640 5642 5644 5647 5649 5648 5646 5647 5647 5647 5647 5648 5649 5650 5651 5650 5650 5652 5652 5651 5652 5655 5657 5656 5656 5657 5657 5658 5658 5658 5656 5654 5653 5650 5648 5649 5648 5645 5645 5648 5649 5649 5648 5648 5647 5648 5650 5650 5649 5649 5646 5641 5637 5635 5635 5634 5634 5634 5634 5638 5642 5639 5636 5635 5634 5633 5631 5630 5630 5629 5627 5625 5624 5622 5621
5614 5616 5620 5621 5619 5621 5626 5629 5630 5631 5633 5632 5631 5634 5637 5638 5639 5640 5639 5640 5640 5640 5639 5640 5642 5643 5645 5645 5643 5642 5644 5646 5644 5644 5647 5648 5648 5648 5649 5650 5651 5651 5651 5649 5646 5645 5641 5640 5643 5642 5639 5639 5641 5641 5640 5639 5638 5638 5639 5640 5641 5641 5640 5637 5632 5630 5631 5627 5624 5629 5629 5625 5630 5637 5631 5627 5628 5626 5624 5624 5624 5623 5620 5619 5618 5617 5616 5615
5606 5609 5613 5612 5611 5614 5619 5622 5623 5623 5624 5624 5624 5627 5630 5631 5632 5632 5633 5633 5632 5632 5632 5633 5636 5639 5639 5637 5634 5634 5637 5638 5637 5638 5639 5639 5640 5640 5641 5642 5642 5643 5643 5641 5639 5637 5631 5630 5635 5634 5630 5632 5633 5630 5630 5630 5629 5629 5630 5631 5633 5634 5632 5628 5623 5623 5624 5618 5616 5623 5622 5617 5623 5629 5623 5619 5619 5617 5616 5616 5616 5615 5613 5612 5612 5611 5610 5609
5599 5601 5604 5603 5604 5608 5611 5614 5614 5613 5615 5616 5615 5619 5624 5625 5625 5625 5625 5624 5623 5625 5626 5626 5630 5633 5630 5628 5625 5626 5630 5631 5630 5631 5631 5629 5631 5632 5632 5634 5635 5635 5635 5632 5630 5629 5623 5620 5625 5625 5621 5623 5624 5621 5622 5622 5620 5620 5622 5624 5626 5626 5622 5617 5614 5615 5615 5610 5611 5614 5610 5609 5616 5619 5614 5612 5611 5608 5606 5606 5607 5608 5607 5606 5605 5604 5602 5600
5592 5593 5595 5594 5596 5601 5603 5604 5604 5604 5606 5607 5606 5613 5618 5617 5617 5618 5617 5615 5616 5618 5619 5618 5622 5624 5620 5619 5617 5618 5624 5624 5620 5622 5622 5619 5620 5622 5623 5625 5626 5626 5625 5623 5621 5621 5616 5612 5615 5616 5612 5611 5614 5613 5612 5613 5613 5612 5613 5617 5619 5616 5612 5610 5610 5610 5608 5603 5605 5605 5598 5600 5610 5609 5603 5603 5601 5598 5597 5598 5600 5600 5598 5597 5595 5594 5594 5592
5583 5584 5585 5585 5587 5591 5593 5594 5596 5595 5597 5598 5601 5607 5609 5607 5610 5610 5606 5606 5608 5610 5610 5610 5613 5613 5611 5610 5610 5612 5617 5615 5610 5612 5613 5610 5611 5613 5614 5615 5617 5616 5615 5614 5612 5611 5610 5606 5606 5607 5602 5600 5606 5605 5603 5605 5605 5601 5604 5611 5611 5607 5605 5607 5606 5603 5600 5597 5596 5594 5589 5594 5602 5599 5593 5592 5592 5590 5591 5592 5592 5590 5588 5586 5586 5586 5585 5583
5573 5574 5576 5576 5577 5581 5583 5585 5585 5584 5588 5593 5596 5598 5598 5598 5602 5600 5595 5597 5601 5601 5601 5601 5602 5602 5601 5602 5604 5606 5607 5603 5601 5603 5604 5602 5602 5604 5604 5605 5606 5605 5605 5605 5603 5602 5601 5599 5598 5598 5593 5591 5596 5596 5594 5595 5592 5590 5599 5606 5605 5601 5601 5599 5596 5595 5594 5591 5586 5584 5584 5588 5590 5587 5584 5585 5585 5584 5585 5584 5582 5581 5580 5579 5578 5578 5576 5573